pivotaltracker.com alexa rank chart, pivotaltracker.com alexa rank daily changes

pivotaltracker.com alexa rank chart, pivotaltracker.com alexa rank daily changes

pivotaltracker.com
Actual rank:
14 518

RANK HISTORY

Date Rank Diff
2017/11/23 14 518 -380
2017/11/22 14 898 -188
2017/11/21 15 086 +304
2017/11/20 14 782 +370
2017/11/19 14 412 +28
2017/11/18 14 384 +30
2017/11/17 14 354 -472
2017/11/16 14 826 -515
2017/11/15 15 341 -72
2017/11/14 15 413 +390
2017/11/13 15 023 +373
2017/11/12 14 650 -7
2017/11/11 14 657 -20
2017/11/10 14 677 -474
2017/11/09 15 151 -499
2017/11/08 15 650 -9
2017/11/07 15 659 +462
2017/11/06 15 197 +482
2017/11/05 14 715 +203
2017/11/04 14 512 +131
2017/11/03 14 381 -482
2017/11/02 14 863 -407
2017/11/01 15 270 -229
2017/10/31 15 499 +426
2017/10/30 15 073 +479
2017/10/29 14 594 +54
2017/10/28 14 540 +236
2017/10/27 14 304 +206
2017/10/26 14 098 -355
2017/10/25 14 453 -457
2017/10/24 14 910 +477
2017/10/23 14 433 +404
2017/10/22 14 029 +227
2017/10/21 13 802 +123
2017/10/20 13 679 +139
2017/10/19 13 540 -305
2017/10/18 13 845 -409
2017/10/17 14 254 +477
2017/10/16 13 777 +474
2017/10/14 13 303 +108
2017/10/13 13 195 +134
2017/10/12 13 061 -326
2017/10/11 13 387 -224
2017/10/10 13 611 +453
2017/10/09 13 158 +478
2017/10/08 12 680 +197
2017/10/07 12 483 +191
2017/10/06 12 292 -32
2017/10/05 12 324 -342
2017/10/04 12 666 -338
2017/10/03 13 004 +372
2017/10/02 12 632 +350
2017/10/01 12 282 +100
2017/09/30 12 182 +54
2017/09/29 12 128 -349
2017/09/28 12 477 -385
2017/09/27 12 862 -115
2017/09/26 12 977 +239
2017/09/25 12 738 +300
2017/09/24 12 438

WIDGET FOR YOUR SITE

DOMAINS WITH THE NEAREST RANK

Domain Rank
esetnod32.ru 14 513
jr-central.co.jp 14 514
thejigsawpuzzles.com 14 515
bonporn.com 14 516
forum.hr 14 517
pivotaltracker.com 14 518
spacex.com 14 519
modesens.com 14 520
rocketstock.com 14 521
javhiv.com 14 522
pdpop.com 14 523

DOMAINS WITH THE NEAREST RANK BY TLD .com

Domain Rank
jazztel.com 14 510
idefix.com 14 511
70ee6484605f.com 14 512
thejigsawpuzzles.com 14 515
bonporn.com 14 516
pivotaltracker.com 14 518
spacex.com 14 519
modesens.com 14 520
rocketstock.com 14 521
javhiv.com 14 522
pdpop.com 14 523